Private Wetterstation Wechselburg
Wetterdaten: Donnerstag, 28.04.2011
Datum Zeit Temp. +2m Bodentemp. Temp.+5cm Temp. Wind Windchill X Diff Temp. Feuchte +2m Feuchte +5cm Sonnenschein Luftdruck Regen Wind Richtung Richtung Sonnenschein UV Taupunkt Windchill Windben
28.04.2011 00:00 11,1 C 15,6 C 9,8 C 10,3 C 8,7 C 0,0 C 86 % 92 % 0 % 1014,0 hPa 0,0 l/m 0,0 km/h (0 Bft) NW 315 0 min 0,0 UV-I 8,8 C 8,7 C 0,0 km/h (0 Bft)
28.04.2011 00:10 11,1 C 15,6 C 9,7 C 10,3 C 8,6 C 0,0 C 87 % 92 % 0 % 1014,0 hPa 0,0 l/m 0,0 km/h (0 Bft) N 0 0 min 0,0 UV-I 9,0 C 8,6 C 0,0 km/h (0 Bft)
28.04.2011 00:15 11,0 C 15,6 C 9,6 C 10,2 C 8,6 C 0,0 C 86 % 92 % 0 % 1013,8 hPa 0,0 l/m 0,0 km/h (0 Bft) NW 315 0 min 0,0 UV-I 8,7 C 8,6 C 0,0 km/h (0 Bft)
28.04.2011 00:20 10,8 C 15,6 C 9,6 C 10,0 C 8,5 C 0,0 C 86 % 92 % 0 % 1013,8 hPa 0,0 l/m 0,0 km/h (0 Bft) NW 315 0 min 0,0 UV-I 8,6 C 8,5 C 0,0 km/h (0 Bft)
28.04.2011 00:25 10,8 C 15,6 C 9,5 C 10,0 C 8,4 C 0,0 C 87 % 92 % 0 % 1013,8 hPa 0,0 l/m 0,0 km/h (0 Bft) NW 315 0 min 0,0 UV-I 8,7 C 8,4 C 0,0 km/h (0 Bft)
28.04.2011 00:30 10,7 C 15,6 C 9,4 C 9,9 C 8,4 C 0,0 C 86 % 92 % 0 % 1013,8 hPa 0,0 l/m 0,2 km/h (0 Bft) O-NO 67 0 min 0,0 UV-I 8,5 C 8,4 C 2,4 km/h (1 Bft)
28.04.2011 00:35 10,7 C 15,6 C 9,4 C 10,0 C 8,6 C 0,0 C 87 % 92 % 0 % 1014,1 hPa 0,0 l/m 0,5 km/h (0 Bft) O-NO 67 0 min 0,0 UV-I 8,6 C 8,6 C 0,0 km/h (0 Bft)
28.04.2011 00:40 10,7 C 15,5 C 9,4 C 10,0 C 8,6 C 0,0 C 87 % 92 % 0 % 1014,1 hPa 0,0 l/m 0,6 km/h (0 Bft) W-SW 247 0 min 0,0 UV-I 8,6 C 8,6 C 1,9 km/h (1 Bft)
28.04.2011 00:45 10,7 C 15,6 C 9,3 C 9,9 C 8,4 C 0,0 C 87 % 92 % 0 % 1014,1 hPa 0,0 l/m 0,2 km/h (0 Bft) W 270 0 min 0,0 UV-I 8,6 C 8,4 C 0,0 km/h (0 Bft)
28.04.2011 00:50 10,7 C 15,6 C 9,3 C 9,9 C 8,3 C 0,0 C 86 % 92 % 0 % 1014,1 hPa 0,0 l/m 0,2 km/h (0 Bft) W 270 0 min 0,0 UV-I 8,5 C 8,3 C 0,0 km/h (0 Bft)
28.04.2011 00:55 10,4 C 15,6 C 9,1 C 9,7 C 8,2 C 0,0 C 86 % 92 % 0 % 1014,4 hPa 0,0 l/m 0,0 km/h (0 Bft) W 270 0 min 0,0 UV-I 8,2 C 8,2 C 0,0 km/h (0 Bft)
28.04.2011 01:00 10,4 C 15,5 C 9,1 C 9,6 C 8,0 C 0,0 C 86 % 92 % 0 % 1014,4 hPa 0,0 l/m 0,0 km/h (0 Bft) W 270 0 min 0,0 UV-I 8,2 C 8,0 C 0,0 km/h (0 Bft)
28.04.2011 01:10 10,4 C 15,5 C 9,1 C 9,6 C 8,1 C 0,0 C 87 % 92 % 0 % 1014,4 hPa 0,0 l/m 0,0 km/h (0 Bft) N 0 0 min 0,0 UV-I 8,3 C 8,1 C 0,0 km/h (0 Bft)
28.04.2011 01:15 10,3 C 15,5 C 9,0 C 9,6 C 8,1 C 0,0 C 87 % 92 % 0 % 1014,2 hPa 0,0 l/m 0,0 km/h (0 Bft) NO 45 0 min 0,0 UV-I 8,2 C 8,1 C 0,0 km/h (0 Bft)
28.04.2011 01:20 10,1 C 15,5 C 8,9 C 9,5 C 8,2 C 0,0 C 86 % 92 % 0 % 1014,2 hPa 0,0 l/m 0,0 km/h (0 Bft) NO 45 0 min 0,0 UV-I 7,9 C 8,2 C 0,0 km/h (0 Bft)
28.04.2011 01:25 10,1 C 15,5 C 8,8 C 9,5 C 8,2 C 0,0 C 87 % 92 % 0 % 1014,2 hPa 0,0 l/m 0,0 km/h (0 Bft) NO 45 0 min 0,0 UV-I 8,0 C 8,2 C 0,0 km/h (0 Bft)
28.04.2011 01:30 10,2 C 15,5 C 8,9 C 9,5 C 8,2 C 0,0 C 88 % 92 % 0 % 1014,2 hPa 0,0 l/m 0,0 km/h (0 Bft) S 180 0 min 0,0 UV-I 8,3 C 8,2 C 0,0 km/h (0 Bft)
28.04.2011 01:35 10,2 C 15,4 C 8,8 C 9,6 C 8,3 C 0,0 C 87 % 93 % 0 % 1014,4 hPa 0,0 l/m 0,0 km/h (0 Bft) S-SW 202 0 min 0,0 UV-I 8,1 C 8,3 C 0,0 km/h (0 Bft)
28.04.2011 01:40 10,3 C 15,4 C 8,8 C 9,6 C 8,3 C 0,0 C 87 % 93 % 0 % 1014,4 hPa 0,0 l/m 0,2 km/h (0 Bft) S-SO 157 0 min 0,0 UV-I 8,2 C 8,3 C 1,9 km/h (1 Bft)
28.04.2011 01:45 10,2 C 15,4 C 8,8 C 9,5 C 8,2 C 0,0 C 87 % 93 % 0 % 1014,4 hPa 0,0 l/m 0,5 km/h (0 Bft) S 180 0 min 0,0 UV-I 8,1 C 8,2 C 0,0 km/h (0 Bft)
28.04.2011 01:50 10,1 C 15,4 C 8,8 C 9,5 C 8,2 C 0,0 C 87 % 93 % 0 % 1014,4 hPa 0,0 l/m 0,3 km/h (0 Bft) S-SW 202 0 min 0,0 UV-I 8,0 C 8,2 C 0,0 km/h (0 Bft)
28.04.2011 01:55 10,1 C 15,4 C 8,8 C 9,5 C 8,2 C 0,0 C 87 % 93 % 0 % 1014,6 hPa 0,0 l/m 0,0 km/h (0 Bft) S-SW 202 0 min 0,0 UV-I 8,0 C 8,2 C 0,0 km/h (0 Bft)
28.04.2011 02:00 10,1 C 15,3 C 8,8 C 9,5 C 8,2 C 0,0 C 87 % 93 % 0 % 1014,6 hPa 0,0 l/m 0,0 km/h (0 Bft) S-SW 202 0 min 0,0 UV-I 8,0 C 8,2 C 0,0 km/h (0 Bft)
28.04.2011 02:10 10,1 C 15,4 C 8,9 C 9,5 C 8,3 C 0,0 C 87 % 93 % 0 % 1014,6 hPa 0,0 l/m 0,0 km/h (0 Bft) N 0 0 min 0,0 UV-I 8,0 C 8,3 C 0,0 km/h (0 Bft)
28.04.2011 02:15 10,3 C 15,3 C 9,1 C 9,7 C 8,4 C 0,0 C 88 % 93 % 0 % 1014,7 hPa 0,0 l/m 0,2 km/h (0 Bft) SW 225 0 min 0,0 UV-I 8,4 C 8,4 C 2,1 km/h (1 Bft)
28.04.2011 02:20 10,3 C 15,3 C 9,1 C 9,7 C 8,5 C 0,0 C 88 % 93 % 0 % 1014,7 hPa 0,0 l/m 0,2 km/h (0 Bft) SW 225 0 min 0,0 UV-I 8,4 C 8,5 C 0,0 km/h (0 Bft)
28.04.2011 02:25 10,1 C 15,3 C 9,1 C 9,6 C 8,5 C 0,0 C 88 % 93 % 0 % 1014,7 hPa 0,0 l/m 0,2 km/h (0 Bft) SW 225 0 min 0,0 UV-I 8,2 C 8,5 C 0,0 km/h (0 Bft)
28.04.2011 02:30 10,1 C 15,3 C 9,1 C 9,6 C 8,5 C 0,0 C 88 % 93 % 0 % 1014,7 hPa 0,0 l/m 0,0 km/h (0 Bft) W-SW 247 0 min 0,0 UV-I 8,2 C 8,5 C 0,0 km/h (0 Bft)
28.04.2011 02:35 10,2 C 15,3 C 9,1 C 9,6 C 8,4 C 0,0 C 88 % 93 % 0 % 1015,2 hPa 0,0 l/m 0,0 km/h (0 Bft) O-SO 112 0 min 0,0 UV-I 8,3 C 8,4 C 0,0 km/h (0 Bft)
28.04.2011 02:40 10,1 C 15,3 C 9,1 C 9,5 C 8,3 C 0,0 C 88 % 93 % 0 % 1015,2 hPa 0,0 l/m 0,0 km/h (0 Bft) S-SW 202 0 min 0,0 UV-I 8,2 C 8,3 C 0,0 km/h (0 Bft)
28.04.2011 02:45 10,0 C 15,3 C 9,1 C 9,4 C 8,2 C 0,0 C 88 % 93 % 0 % 1015,2 hPa 0,0 l/m 0,0 km/h (0 Bft) S-SW 202 0 min 0,0 UV-I 8,1 C 8,2 C 0,0 km/h (0 Bft)
28.04.2011 02:50 10,0 C 15,3 C 9,1 C 9,4 C 8,2 C 0,0 C 88 % 93 % 0 % 1015,2 hPa 0,0 l/m 0,0 km/h (0 Bft) NO 45 0 min 0,0 UV-I 8,1 C 8,2 C 1,6 km/h (1 Bft)
28.04.2011 02:55 10,0 C 15,3 C 9,1 C 9,5 C 8,4 C 0,0 C 88 % 93 % 0 % 1014,5 hPa 0,0 l/m 0,5 km/h (0 Bft) O-NO 67 0 min 0,0 UV-I 8,1 C 8,4 C 0,0 km/h (0 Bft)
28.04.2011 03:00 10,0 C 15,3 C 9,1 C 9,5 C 8,4 C 0,0 C 88 % 93 % 0 % 1014,5 hPa 0,0 l/m 0,5 km/h (0 Bft) O-NO 67 0 min 0,0 UV-I 8,1 C 8,4 C 0,0 km/h (0 Bft)
28.04.2011 03:10 10,0 C 15,2 C 9,0 C 9,5 C 8,5 C 0,0 C 88 % 93 % 0 % 1014,5 hPa 0,0 l/m 0,0 km/h (0 Bft) N 0 0 min 0,0 UV-I 8,1 C 8,5 C 0,0 km/h (0 Bft)
28.04.2011 03:15 10,0 C 15,2 C 9,0 C 9,5 C 8,5 C 0,0 C 88 % 93 % 0 % 1014,4 hPa 0,0 l/m 0,3 km/h (0 Bft) S-SW 202 0 min 0,0 UV-I 8,1 C 8,5 C 1,6 km/h (1 Bft)
28.04.2011 03:20 10,1 C 15,2 C 8,9 C 9,5 C 8,4 C 0,0 C 88 % 93 % 0 % 1014,4 hPa 0,0 l/m 0,3 km/h (0 Bft) S-SW 202 0 min 0,0 UV-I 8,2 C 8,4 C 0,0 km/h (0 Bft)
28.04.2011 03:25 10,1 C 15,2 C 8,8 C 9,5 C 8,3 C 0,0 C 88 % 93 % 0 % 1014,4 hPa 0,0 l/m 1,3 km/h (1 Bft) SW 225 0 min 0,0 UV-I 8,2 C 8,3 C 3,9 km/h (1 Bft)
28.04.2011 03:30 10,0 C 15,2 C 8,7 C 9,4 C 8,2 C 0,0 C 88 % 93 % 0 % 1014,4 hPa 0,0 l/m 1,6 km/h (1 Bft) SW 225 0 min 0,0 UV-I 8,1 C 8,2 C 1,6 km/h (1 Bft)
28.04.2011 03:35 9,9 C 15,2 C 8,7 C 9,3 C 8,2 C 0,0 C 88 % 93 % 0 % 1013,8 hPa 0,0 l/m 1,6 km/h (1 Bft) NO 45 0 min 0,0 UV-I 8,0 C 8,2 C 4,7 km/h (1 Bft)
28.04.2011 03:40 9,7 C 15,2 C 8,7 C 9,2 C 8,2 C 0,0 C 88 % 93 % 0 % 1013,8 hPa 0,0 l/m 2,3 km/h (1 Bft) O-NO 67 0 min 0,0 UV-I 7,8 C 8,2 C 2,9 km/h (1 Bft)
28.04.2011 03:45 9,6 C 15,2 C 8,7 C 9,2 C 8,3 C 0,0 C 88 % 93 % 0 % 1013,8 hPa 0,0 l/m 2,3 km/h (1 Bft) O-NO 67 0 min 0,0 UV-I 7,7 C 8,3 C 4,8 km/h (1 Bft)
28.04.2011 03:50 9,6 C 15,2 C 8,8 C 9,2 C 8,3 C 0,0 C 89 % 93 % 0 % 1013,8 hPa 0,0 l/m 1,0 km/h (0 Bft) O-NO 67 0 min 0,0 UV-I 7,9 C 8,3 C 0,0 km/h (0 Bft)
28.04.2011 03:55 9,7 C 15,2 C 8,7 C 9,2 C 8,2 C 0,0 C 89 % 93 % 0 % 1013,7 hPa 0,0 l/m 0,5 km/h (0 Bft) SW 225 0 min 0,0 UV-I 8,0 C 8,2 C 0,0 km/h (0 Bft)
28.04.2011 04:00 9,6 C 15,2 C 8,8 C 9,1 C 8,2 C 0,0 C 89 % 93 % 0 % 1013,7 hPa 0,0 l/m 0,5 km/h (0 Bft) S-SW 202 0 min 0,0 UV-I 7,9 C 8,2 C 0,0 km/h (0 Bft)
28.04.2011 04:10 9,6 C 15,1 C 8,7 C 9,1 C 8,1 C 0,0 C 88 % 93 % 0 % 1013,7 hPa 0,0 l/m 0,0 km/h (0 Bft) N 0 0 min 0,0 UV-I 7,7 C 8,1 C 0,0 km/h (0 Bft)
28.04.2011 04:15 9,6 C 15,1 C 8,7 C 9,1 C 8,1 C 0,0 C 89 % 93 % 0 % 1013,7 hPa 0,0 l/m 0,0 km/h (0 Bft) S-SW 202 0 min 0,0 UV-I 7,9 C 8,1 C 0,0 km/h (0 Bft)
28.04.2011 04:20 9,6 C 15,1 C 8,7 C 9,1 C 8,1 C 0,0 C 89 % 93 % 0 % 1013,7 hPa 0,0 l/m 0,0 km/h (0 Bft) W-SW 247 0 min 0,0 UV-I 7,9 C 8,1 C 0,0 km/h (0 Bft)
28.04.2011 04:25 9,5 C 15,1 C 8,7 C 9,0 C 8,1 C 0,0 C 89 % 93 % 0 % 1013,7 hPa 0,0 l/m 0,0 km/h (0 Bft) SW 225 0 min 0,0 UV-I 7,8 C 8,1 C 0,0 km/h (0 Bft)
28.04.2011 04:30 9,6 C 15,1 C 8,7 C 9,1 C 8,0 C 0,0 C 89 % 93 % 0 % 1013,7 hPa 0,0 l/m 0,0 km/h (0 Bft) W-SW 247 0 min 0,0 UV-I 7,9 C 8,0 C 0,0 km/h (0 Bft)
28.04.2011 04:35 9,6 C 15,1 C 8,7 C 9,1 C 8,0 C 0,0 C 89 % 93 % 0 % 1013,7 hPa 0,0 l/m 0,0 km/h (0 Bft) O-NO 67 0 min 0,0 UV-I 7,9 C 8,0 C 0,0 km/h (0 Bft)
28.04.2011 04:40 9,6 C 15,0 C 8,7 C 9,1 C 8,0 C 0,0 C 89 % 93 % 0 % 1013,7 hPa 0,0 l/m 0,0 km/h (0 Bft) O-NO 67 0 min 0,0 UV-I 7,9 C 8,0 C 0,0 km/h (0 Bft)
28.04.2011 04:45 9,6 C 15,0 C 8,7 C 9,0 C 7,9 C 0,0 C 89 % 93 % 0 % 1013,7 hPa 0,0 l/m 0,0 km/h (0 Bft) N-NW 337 0 min 0,0 UV-I 7,9 C 7,9 C 0,0 km/h (0 Bft)
28.04.2011 04:50 9,6 C 15,0 C 8,6 C 9,0 C 7,9 C 0,0 C 89 % 93 % 0 % 1013,7 hPa 0,0 l/m 0,0 km/h (0 Bft) NW 315 0 min 0,0 UV-I 7,9 C 7,9 C 0,0 km/h (0 Bft)
28.04.2011 04:55 9,5 C 15,0 C 8,7 C 8,9 C 7,8 C 0,0 C 89 % 93 % 0 % 1013,8 hPa 0,0 l/m 0,0 km/h (0 Bft) NW 315 0 min 0,0 UV-I 7,8 C 7,8 C 0,0 km/h (0 Bft)
28.04.2011 05:00 9,5 C 15,0 C 8,6 C 8,9 C 7,7 C 0,0 C 89 % 93 % 0 % 1013,8 hPa 0,0 l/m 0,0 km/h (0 Bft) NW 315 0 min 0,0 UV-I 7,8 C 7,7 C 0,0 km/h (0 Bft)
28.04.2011 05:10 9,5 C 15,0 C 8,4 C 8,8 C 7,5 C 0,0 C 88 % 93 % 0 % 1013,8 hPa 0,0 l/m 0,0 km/h (0 Bft) N 0 0 min 0,0 UV-I 7,6 C 7,5 C 0,0 km/h (0 Bft)
28.04.2011 05:15 9,4 C 15,0 C 8,4 C 8,7 C 7,3 C 0,0 C 89 % 93 % 0 % 1013,9 hPa 0,0 l/m 0,0 km/h (0 Bft) NW 315 0 min 0,0 UV-I 7,7 C 7,3 C 0,0 km/h (0 Bft)
28.04.2011 05:20 9,5 C 15,0 C 8,4 C 8,8 C 7,3 C 0,0 C 89 % 93 % 0 % 1013,9 hPa 0,0 l/m 0,0 km/h (0 Bft) NW 315 0 min 0,0 UV-I 7,8 C 7,3 C 0,0 km/h (0 Bft)
28.04.2011 05:25 9,4 C 15,0 C 8,3 C 8,7 C 7,3 C 0,0 C 88 % 93 % 0 % 1013,9 hPa 0,0 l/m 0,0 km/h (0 Bft) NW 315 0 min 0,0 UV-I 7,5 C 7,3 C 0,0 km/h (0 Bft)
28.04.2011 05:30 9,3 C 14,9 C 8,3 C 8,6 C 7,2 C 0,0 C 88 % 93 % 0 % 1013,9 hPa 0,0 l/m 0,0 km/h (0 Bft) NW 315 0 min 0,0 UV-I 7,4 C 7,2 C 0,0 km/h (0 Bft)
28.04.2011 05:35 9,2 C 14,9 C 8,2 C 8,5 C 7,1 C 0,0 C 88 % 93 % 0 % 1013,7 hPa 0,0 l/m 0,0 km/h (0 Bft) NW 315 0 min 0,0 UV-I 7,3 C 7,1 C 0,0 km/h (0 Bft)
28.04.2011 05:40 9,1 C 14,9 C 8,1 C 8,4 C 7,1 C 0,0 C 88 % 93 % 0 % 1013,7 hPa 0,0 l/m 0,0 km/h (0 Bft) NO 45 0 min 0,0 UV-I 7,2 C 7,1 C 0,0 km/h (0 Bft)
28.04.2011 05:45 9,0 C 14,9 C 8,0 C 8,4 C 7,1 C 0,0 C 88 % 93 % 0 % 1013,7 hPa 0,0 l/m 0,0 km/h (0 Bft) NO 45 0 min 0,0 UV-I 7,1 C 7,1 C 0,0 km/h (0 Bft)
28.04.2011 05:50 8,9 C 14,9 C 8,0 C 8,3 C 7,1 C 0,0 C 88 % 93 % 0 % 1013,7 hPa 0,0 l/m 0,2 km/h (0 Bft) NO 45 0 min 0,0 UV-I 7,0 C 7,1 C 0,0 km/h (0 Bft)
28.04.2011 05:55 8,8 C 14,9 C 7,9 C 8,2 C 7,1 C 0,0 C 89 % 93 % 0 % 1014,0 hPa 0,0 l/m 0,2 km/h (0 Bft) NO 45 0 min 0,0 UV-I 7,1 C 7,1 C 0,0 km/h (0 Bft)
28.04.2011 06:00 8,8 C 14,9 C 7,9 C 8,2 C 7,0 C 0,0 C 89 % 93 % 0 % 1014,0 hPa 0,0 l/m 0,0 km/h (0 Bft) O-NO 67 0 min 0,0 UV-I 7,1 C 7,0 C 0,0 km/h (0 Bft)
28.04.2011 06:10 8,7 C 14,9 C 7,8 C 8,1 C 7,0 C 0,0 C 89 % 93 % 0 % 1014,0 hPa 0,0 l/m 0,0 km/h (0 Bft) N 0 0 min 0,0 UV-I 7,0 C 7,0 C 0,0 km/h (0 Bft)
28.04.2011 06:15 8,6 C 14,8 C 7,7 C 8,1 C 7,1 C 0,0 C 89 % 93 % 0 % 1013,8 hPa 0,0 l/m 0,3 km/h (0 Bft) O-NO 67 0 min 0,0 UV-I 6,9 C 7,1 C 0,0 km/h (0 Bft)
28.04.2011 06:20 8,7 C 14,8 C 7,9 C 8,2 C 7,1 C 0,0 C 89 % 93 % 0 % 1013,8 hPa 0,0 l/m 0,3 km/h (0 Bft) O-NO 67 0 min 0,0 UV-I 7,0 C 7,1 C 0,0 km/h (0 Bft)
28.04.2011 06:25 8,7 C 14,8 C 7,8 C 8,2 C 7,1 C 0,0 C 89 % 93 % 0 % 1013,8 hPa 0,0 l/m 0,0 km/h (0 Bft) W 270 0 min 0,0 UV-I 7,0 C 7,1 C 0,0 km/h (0 Bft)
28.04.2011 06:30 8,8 C 14,8 C 7,7 C 8,2 C 7,1 C 0,0 C 89 % 93 % 0 % 1013,8 hPa 0,0 l/m 0,0 km/h (0 Bft) W-NW 292 0 min 0,0 UV-I 7,1 C 7,1 C 0,0 km/h (0 Bft)
28.04.2011 06:35 8,9 C 14,8 C 7,9 C 8,3 C 7,1 C 0,0 C 89 % 93 % 0 % 1014,1 hPa 0,0 l/m 0,0 km/h (0 Bft) W 270 0 min 0,0 UV-I 7,2 C 7,1 C 0,0 km/h (0 Bft)
28.04.2011 06:40 8,9 C 14,8 C 7,9 C 8,4 C 7,3 C 0,0 C 90 % 93 % 0 % 1014,1 hPa 0,0 l/m 0,5 km/h (0 Bft) W-SW 247 0 min 0,0 UV-I 7,4 C 7,3 C 2,3 km/h (1 Bft)
28.04.2011 06:45 9,1 C 14,8 C 7,9 C 8,5 C 7,3 C 0,0 C 89 % 93 % 0 % 1014,1 hPa 0,0 l/m 1,1 km/h (1 Bft) SW 225 0 min 0,0 UV-I 7,4 C 7,3 C 1,8 km/h (1 Bft)
28.04.2011 06:50 9,1 C 14,8 C 7,8 C 8,5 C 7,4 C 0,0 C 89 % 93 % 0 % 1014,1 hPa 0,0 l/m 0,8 km/h (0 Bft) SW 225 0 min 0,0 UV-I 7,4 C 7,4 C 0,0 km/h (0 Bft)
28.04.2011 06:55 8,9 C 14,7 C 7,7 C 8,4 C 7,4 C 0,0 C 88 % 93 % 0 % 1013,8 hPa 0,0 l/m 0,2 km/h (0 Bft) SW 225 0 min 0,0 UV-I 7,0 C 7,4 C 0,0 km/h (0 Bft)
28.04.2011 07:00 9,1 C 14,7 C 7,9 C 8,6 C 7,6 C 0,0 C 89 % 93 % 0 % 1013,8 hPa 0,0 l/m 0,0 km/h (0 Bft) SW 225 0 min 0,0 UV-I 7,4 C 7,6 C 0,0 km/h (0 Bft)
28.04.2011 07:10 9,5 C 14,7 C 8,0 C 9,1 C 8,2 C 0,0 C 88 % 93 % 0 % 1013,8 hPa 0,0 l/m 0,0 km/h (0 Bft) N 0 0 min 0,0 UV-I 7,6 C 8,2 C 0,0 km/h (0 Bft)
28.04.2011 07:15 9,6 C 14,7 C 8,2 C 9,3 C 8,6 C 0,0 C 88 % 93 % 0 % 1013,9 hPa 0,0 l/m 0,2 km/h (0 Bft) SW 225 0 min 0,0 UV-I 7,7 C 8,6 C 1,6 km/h (1 Bft)
28.04.2011 07:20 9,9 C 14,7 C 8,3 C 9,6 C 8,9 C 0,0 C 88 % 94 % 0 % 1013,9 hPa 0,0 l/m 0,5 km/h (0 Bft) SW 225 0 min 0,0 UV-I 8,0 C 8,9 C 2,1 km/h (1 Bft)
28.04.2011 07:25 9,9 C 14,7 C 8,2 C 9,6 C 8,9 C 0,0 C 88 % 93 % 0 % 1013,9 hPa 0,0 l/m 1,0 km/h (0 Bft) W-SW 247 0 min 0,0 UV-I 8,0 C 8,9 C 0,0 km/h (0 Bft)
28.04.2011 07:30 9,8 C 14,7 C 8,3 C 9,5 C 8,9 C 0,0 C 87 % 94 % 0 % 1013,9 hPa 0,0 l/m 0,6 km/h (0 Bft) W-NW 292 0 min 0,0 UV-I 7,7 C 8,9 C 0,0 km/h (0 Bft)
28.04.2011 07:35 9,6 C 14,7 C 8,4 C 9,4 C 8,9 C 0,0 C 88 % 94 % 0 % 1014,0 hPa 0,0 l/m 0,0 km/h (0 Bft) O-NO 67 0 min 0,0 UV-I 7,7 C 8,9 C 0,0 km/h (0 Bft)
28.04.2011 07:40 9,6 C 14,7 C 8,4 C 9,4 C 8,9 C 0,0 C 88 % 94 % 0 % 1014,0 hPa 0,0 l/m 0,0 km/h (0 Bft) O-NO 67 0 min 0,0 UV-I 7,7 C 8,9 C 0,0 km/h (0 Bft)
28.04.2011 07:45 9,6 C 14,5 C 8,7 C 9,4 C 8,9 C 0,0 C 88 % 94 % 0 % 1014,0 hPa 0,0 l/m 0,0 km/h (0 Bft) O-NO 67 0 min 0,1 UV-I 7,7 C 8,9 C 0,0 km/h (0 Bft)
28.04.2011 07:50 9,7 C 14,5 C 8,6 C 9,5 C 9,0 C 0,0 C 89 % 94 % 0 % 1014,0 hPa 0,0 l/m 0,0 km/h (0 Bft) O-NO 67 0 min 0,1 UV-I 8,0 C 9,0 C 0,0 km/h (0 Bft)
28.04.2011 07:55 9,9 C 14,5 C 8,9 C 9,7 C 9,4 C 0,0 C 89 % 94 % 0 % 1014,1 hPa 0,0 l/m 0,0 km/h (0 Bft) NO 45 0 min 0,0 UV-I 8,2 C 9,4 C 0,0 km/h (0 Bft)
28.04.2011 08:00 10,0 C 14,5 C 9,0 C 9,9 C 9,6 C 0,0 C 89 % 94 % 0 % 1014,1 hPa 0,0 l/m 0,0 km/h (0 Bft) NO 45 0 min 0,0 UV-I 8,3 C 9,6 C 0,0 km/h (0 Bft)
28.04.2011 08:10 10,3 C 14,4 C 9,2 C 10,2 C 10,1 C 0,0 C 89 % 94 % 0 % 1014,1 hPa 0,0 l/m 0,0 km/h (0 Bft) N 0 0 min 0,1 UV-I 8,6 C 10,1 C 0,0 km/h (0 Bft)
28.04.2011 08:15 10,3 C 14,4 C 9,4 C 10,3 C 10,3 C 0,0 C 89 % 94 % 0 % 1014,0 hPa 0,0 l/m 0,0 km/h (0 Bft) SW 225 0 min 0,1 UV-I 8,6 C 10,3 C 0,0 km/h (0 Bft)
28.04.2011 08:20 10,4 C 14,4 C 9,5 C 10,3 C 10,2 C 0,0 C 89 % 94 % 0 % 1014,0 hPa 0,0 l/m 0,5 km/h (0 Bft) W-SW 247 0 min 0,1 UV-I 8,7 C 10,2 C 2,6 km/h (1 Bft)
28.04.2011 08:25 10,4 C 14,4 C 9,6 C 10,3 C 10,2 C 0,0 C 89 % 94 % 0 % 1014,0 hPa 0,0 l/m 1,3 km/h (1 Bft) S 180 0 min 0,1 UV-I 8,7 C 10,2 C 2,1 km/h (1 Bft)
28.04.2011 08:30 10,5 C 14,4 C 9,6 C 10,4 C 10,3 C 0,0 C 89 % 94 % 0 % 1014,0 hPa 0,0 l/m 1,3 km/h (1 Bft) W-SW 247 0 min 0,1 UV-I 8,8 C 10,3 C 0,0 km/h (0 Bft)
28.04.2011 08:35 10,6 C 14,4 C 9,7 C 10,6 C 10,5 C 0,0 C 89 % 94 % 0 % 1014,4 hPa 0,0 l/m 0,5 km/h (0 Bft) W-SW 247 0 min 0,2 UV-I 8,9 C 10,5 C 0,0 km/h (0 Bft)
28.04.2011 08:40 10,9 C 14,3 C 9,8 C 11,0 C 11,0 C 0,1 C 89 % 94 % 3 % 1014,4 hPa 0,0 l/m 0,0 km/h (0 Bft) S 180 0 min 0,2 UV-I 9,2 C 11,0 C 0,0 km/h (0 Bft)
28.04.2011 08:45 11,1 C 14,2 C 10,0 C 11,8 C 11,8 C 0,7 C 89 % 94 % 18 % 1014,4 hPa 0,0 l/m 0,3 km/h (0 Bft) S 180 0 min 0,3 UV-I 9,4 C 11,8 C 0,0 km/h (0 Bft)
28.04.2011 08:50 11,1 C 14,3 C 10,1 C 11,8 C 11,8 C 0,7 C 89 % 94 % 18 % 1014,4 hPa 0,0 l/m 0,3 km/h (0 Bft) NW 315 0 min 0,3 UV-I 9,4 C 11,8 C 0,0 km/h (0 Bft)
28.04.2011 08:55 11,1 C 14,2 C 10,3 C 12,0 C 12,0 C 0,9 C 88 % 94 % 24 % 1014,1 hPa 0,0 l/m 0,2 km/h (0 Bft) SW 225 0 min 0,3 UV-I 9,2 C 12,0 C 0,0 km/h (0 Bft)
28.04.2011 09:00 11,3 C 14,2 C 10,4 C 12,1 C 12,1 C 0,8 C 88 % 94 % 21 % 1014,1 hPa 0,0 l/m 0,2 km/h (0 Bft) W-SW 247 0 min 0,3 UV-I 9,4 C 12,1 C 0,0 km/h (0 Bft)
28.04.2011 09:10 11,5 C 14,1 C 10,7 C 12,5 C 12,5 C 1,0 C 88 % 93 % 26 % 1014,1 hPa 0,0 l/m 0,0 km/h (0 Bft) N 0 0 min 0,3 UV-I 9,6 C 12,5 C 0,0 km/h (0 Bft)
28.04.2011 09:15 11,6 C 14,1 C 10,8 C 12,8 C 12,8 C 1,2 C 88 % 94 % 32 % 1014,1 hPa 0,0 l/m 0,3 km/h (0 Bft) SW 225 0 min 0,3 UV-I 9,7 C 12,8 C 2,3 km/h (1 Bft)
28.04.2011 09:20 11,7 C 14,1 C 10,9 C 12,8 C 12,8 C 1,1 C 88 % 94 % 29 % 1014,1 hPa 0,0 l/m 0,5 km/h (0 Bft) W-SW 247 0 min 0,3 UV-I 9,8 C 12,8 C 0,0 km/h (0 Bft)
28.04.2011 09:25 11,8 C 14,1 C 11,2 C 13,2 C 13,2 C 1,4 C 88 % 94 % 37 % 1014,1 hPa 0,0 l/m 0,5 km/h (0 Bft) W-SW 247 0 min 0,4 UV-I 9,9 C 13,2 C 0,0 km/h (0 Bft)
28.04.2011 09:30 12,1 C 14,1 C 11,3 C 13,6 C 13,6 C 1,5 C 87 % 94 % 39 % 1014,1 hPa 0,0 l/m 0,0 km/h (0 Bft) W-SW 247 0 min 0,4 UV-I 10,0 C 13,6 C 0,0 km/h (0 Bft)
28.04.2011 09:35 12,1 C 14,1 C 11,4 C 14,2 C 14,2 C 2,1 C 87 % 93 % 55 % 1013,7 hPa 0,0 l/m 0,0 km/h (0 Bft) S 180 0 min 0,5 UV-I 10,0 C 14,2 C 0,0 km/h (0 Bft)
28.04.2011 09:40 12,3 C 14,1 C 11,4 C 14,3 C 14,3 C 2,0 C 87 % 93 % 53 % 1013,7 hPa 0,0 l/m 0,6 km/h (0 Bft) SW 225 0 min 0,5 UV-I 10,2 C 14,3 C 2,3 km/h (1 Bft)
28.04.2011 09:45 12,3 C 14,1 C 11,6 C 14,1 C 14,1 C 1,8 C 86 % 93 % 47 % 1013,7 hPa 0,0 l/m 1,8 km/h (1 Bft) SW 225 0 min 0,5 UV-I 10,0 C 14,1 C 2,7 km/h (1 Bft)
28.04.2011 09:50 12,4 C 14,1 C 11,7 C 14,1 C 14,1 C 1,7 C 86 % 92 % 45 % 1013,7 hPa 0,0 l/m 1,8 km/h (1 Bft) W 270 0 min 0,5 UV-I 10,1 C 14,1 C 3,1 km/h (1 Bft)
28.04.2011 09:55 12,5 C 14,1 C 11,9 C 14,4 C 14,4 C 1,9 C 86 % 92 % 50 % 1013,5 hPa 0,0 l/m 1,1 km/h (1 Bft) S 180 0 min 0,5 UV-I 10,2 C 14,4 C 1,8 km/h (1 Bft)
28.04.2011 10:00 12,7 C 14,1 C 12,0 C 14,6 C 14,6 C 1,9 C 86 % 92 % 50 % 1013,5 hPa 0,0 l/m 0,8 km/h (0 Bft) N-NW 337 0 min 0,5 UV-I 10,4 C 14,6 C 0,0 km/h (0 Bft)
28.04.2011 10:10 13,5 C 14,2 C 12,9 C 16,3 C 16,3 C 2,8 C 85 % 91 % 74 % 1013,5 hPa 0,0 l/m 0,3 km/h (0 Bft) N 0 0 min 0,8 UV-I 11,0 C 16,3 C 0,0 km/h (0 Bft)
28.04.2011 10:15 13,9 C 14,2 C 13,5 C 16,8 C 16,8 C 2,9 C 84 % 90 % 76 % 1013,7 hPa 0,0 l/m 0,5 km/h (0 Bft) N-NO 22 0 min 0,9 UV-I 11,2 C 16,8 C 1,9 km/h (1 Bft)
28.04.2011 10:20 14,0 C 14,1 C 13,7 C 17,9 C 17,9 C 3,9 C 84 % 89 % 100 % 1013,7 hPa 0,0 l/m 0,8 km/h (0 Bft) NW 315 5 min 0,9 UV-I 11,3 C 17,9 C 0,0 km/h (0 Bft)
28.04.2011 10:25 14,2 C 14,1 C 14,0 C 19,1 C 19,1 C 4,9 C 83 % 88 % 100 % 1013,7 hPa 0,0 l/m 0,6 km/h (0 Bft) N-NW 337 5 min 1,0 UV-I 11,4 C 19,1 C 1,9 km/h (1 Bft)
28.04.2011 10:30 14,4 C 14,1 C 14,1 C 18,8 C 18,8 C 4,4 C 83 % 87 % 100 % 1013,7 hPa 0,0 l/m 1,0 km/h (0 Bft) NO 45 5 min 1,0 UV-I 11,5 C 18,8 C 2,6 km/h (1 Bft)
28.04.2011 10:35 14,7 C 14,1 C 14,4 C 18,4 C 18,4 C 3,7 C 82 % 86 % 97 % 1013,6 hPa 0,0 l/m 1,1 km/h (1 Bft) O-NO 67 5 min 1,0 UV-I 11,7 C 18,4 C 0,0 km/h (0 Bft)
28.04.2011 10:40 14,9 C 14,2 C 14,7 C 18,0 C 18,0 C 3,1 C 82 % 85 % 82 % 1013,6 hPa 0,0 l/m 1,1 km/h (1 Bft) NW 315 0 min 1,0 UV-I 11,9 C 18,0 C 1,9 km/h (1 Bft)
28.04.2011 10:45 15,2 C 14,2 C 14,8 C 17,9 C 17,9 C 2,7 C 82 % 87 % 71 % 1013,6 hPa 0,0 l/m 1,3 km/h (1 Bft) N-NW 337 0 min 1,1 UV-I 12,1 C 17,9 C 0,0 km/h (0 Bft)
28.04.2011 10:50 15,5 C 14,2 C 14,9 C 18,0 C 18,0 C 2,5 C 81 % 85 % 66 % 1013,6 hPa 0,0 l/m 1,3 km/h (1 Bft) N-NW 337 0 min 1,1 UV-I 12,3 C 18,0 C 0,0 km/h (0 Bft)
28.04.2011 10:55 15,6 C 14,2 C 15,1 C 18,5 C 18,5 C 2,9 C 81 % 85 % 76 % 1013,6 hPa 0,0 l/m 0,6 km/h (0 Bft) NO 45 0 min 1,2 UV-I 12,3 C 18,5 C 0,0 km/h (0 Bft)
28.04.2011 11:00 15,7 C 14,2 C 15,1 C 18,8 C 18,8 C 3,1 C 81 % 85 % 82 % 1013,6 hPa 0,0 l/m 0,5 km/h (0 Bft) O-NO 67 0 min 1,2 UV-I 12,4 C 18,8 C 0,0 km/h (0 Bft)
28.04.2011 11:10 16,0 C 14,3 C 15,7 C 19,6 C 19,6 C 3,6 C 78 % 83 % 95 % 1013,6 hPa 0,0 l/m 1,0 km/h (0 Bft) N 0 10 min 1,3 UV-I 12,2 C 19,6 C 2,1 km/h (1 Bft)
28.04.2011 11:15 16,1 C 14,3 C 15,8 C 19,7 C 19,7 C 3,6 C 77 % 81 % 95 % 1013,4 hPa 0,0 l/m 1,8 km/h (1 Bft) O-NO 67 5 min 1,2 UV-I 12,1 C 19,7 C 3,1 km/h (1 Bft)
28.04.2011 11:20 16,2 C 14,3 C 15,9 C 19,7 C 19,7 C 3,5 C 77 % 81 % 92 % 1013,4 hPa 0,0 l/m 1,6 km/h (1 Bft) N-NO 22 5 min 1,2 UV-I 12,2 C 19,7 C 0,0 km/h (0 Bft)
28.04.2011 11:25 16,3 C 14,3 C 16,1 C 19,8 C 19,8 C 3,5 C 74 % 79 % 92 % 1013,4 hPa 0,0 l/m 1,3 km/h (1 Bft) O-NO 67 5 min 1,2 UV-I 11,7 C 19,8 C 5,1 km/h (1 Bft)
28.04.2011 11:30 16,4 C 14,3 C 16,1 C 19,8 C 19,8 C 3,4 C 72 % 74 % 89 % 1013,4 hPa 0,0 l/m 1,8 km/h (1 Bft) O-NO 67 5 min 1,2 UV-I 11,3 C 19,8 C 2,4 km/h (1 Bft)
28.04.2011 11:35 16,7 C 14,3 C 16,3 C 19,4 C 19,4 C 2,7 C 68 % 73 % 71 % 1013,2 hPa 0,0 l/m 3,5 km/h (1 Bft) O-NO 67 0 min 1,1 UV-I 10,8 C 19,4 C 8,5 km/h (2 Bft)
28.04.2011 11:40 16,7 C 14,3 C 16,4 C 19,3 C 19,3 C 2,6 C 68 % 70 % 68 % 1013,2 hPa 0,0 l/m 3,9 km/h (1 Bft) O-NO 67 0 min 1,1 UV-I 10,8 C 19,3 C 3,9 km/h (1 Bft)
28.04.2011 11:45 16,8 C 14,4 C 16,4 C 19,4 C 19,4 C 2,6 C 68 % 71 % 68 % 1013,2 hPa 0,0 l/m 3,4 km/h (1 Bft) O-NO 67 0 min 1,0 UV-I 10,9 C 19,4 C 2,9 km/h (1 Bft)
28.04.2011 11:50 16,9 C 14,4 C 16,5 C 19,4 C 19,4 C 2,5 C 68 % 72 % 66 % 1013,2 hPa 0,0 l/m 2,6 km/h (1 Bft) NO 45 0 min 1,0 UV-I 11,0 C 19,4 C 1,8 km/h (1 Bft)
28.04.2011 11:55 17,1 C 14,4 C 16,8 C 20,0 C 20,0 C 2,9 C 68 % 70 % 76 % 1013,3 hPa 0,0 l/m 2,1 km/h (1 Bft) NO 45 0 min 1,3 UV-I 11,1 C 20,0 C 3,4 km/h (1 Bft)
28.04.2011 12:00 17,3 C 14,4 C 17,0 C 20,4 C 20,4 C 3,1 C 65 % 69 % 82 % 1013,3 hPa 0,0 l/m 2,3 km/h (1 Bft) O-NO 67 0 min 1,3 UV-I 10,7 C 20,4 C 3,9 km/h (1 Bft)
28.04.2011 12:10 18,0 C 14,5 C 17,7 C 22,4 C 22,4 C 4,4 C 65 % 68 % 100 % 1013,3 hPa 0,0 l/m 3,1 km/h (1 Bft) N 0 10 min 1,6 UV-I 11,3 C 22,4 C 3,1 km/h (1 Bft)
28.04.2011 12:15 18,1 C 14,5 C 17,9 C 22,6 C 22,6 C 4,5 C 63 % 66 % 100 % 1013,3 hPa 0,0 l/m 3,4 km/h (1 Bft) O-NO 67 5 min 1,8 UV-I 10,9 C 22,6 C 4,5 km/h (1 Bft)
28.04.2011 12:20 18,3 C 14,5 C 18,1 C 22,6 C 22,6 C 4,3 C 62 % 66 % 100 % 1013,3 hPa 0,0 l/m 4,0 km/h (1 Bft) O 90 5 min 1,8 UV-I 10,9 C 22,6 C 3,7 km/h (1 Bft)
28.04.2011 12:25 18,4 C 14,6 C 18,3 C 22,7 C 22,7 C 4,3 C 62 % 64 % 100 % 1013,3 hPa 0,0 l/m 4,0 km/h (1 Bft) NO 45 5 min 2,1 UV-I 11,0 C 22,7 C 6,4 km/h (2 Bft)
28.04.2011 12:30 18,5 C 14,6 C 18,4 C 22,6 C 22,6 C 4,1 C 62 % 65 % 100 % 1013,3 hPa 0,0 l/m 4,0 km/h (1 Bft) SO 135 5 min 2,1 UV-I 11,1 C 22,6 C 2,9 km/h (1 Bft)
28.04.2011 12:35 18,7 C 14,6 C 18,7 C 22,9 C 22,9 C 4,2 C 60 % 62 % 100 % 1013,0 hPa 0,0 l/m 4,2 km/h (1 Bft) O-NO 67 5 min 2,4 UV-I 10,8 C 22,9 C 5,1 km/h (1 Bft)
28.04.2011 12:40 18,8 C 14,6 C 18,7 C 23,1 C 23,1 C 4,3 C 61 % 63 % 100 % 1013,0 hPa 0,0 l/m 3,9 km/h (1 Bft) O-NO 67 5 min 2,4 UV-I 11,1 C 23,1 C 8,7 km/h (2 Bft)
28.04.2011 12:45 18,9 C 14,6 C 18,8 C 23,3 C 23,3 C 4,4 C 61 % 62 % 100 % 1013,0 hPa 0,0 l/m 3,5 km/h (1 Bft) O-NO 67 5 min 2,2 UV-I 11,2 C 23,3 C 2,9 km/h (1 Bft)
28.04.2011 12:50 18,9 C 14,7 C 18,8 C 23,3 C 23,3 C 4,4 C 60 % 63 % 100 % 1013,0 hPa 0,0 l/m 2,9 km/h (1 Bft) O 90 5 min 2,2 UV-I 11,0 C 23,3 C 4,5 km/h (1 Bft)
28.04.2011 12:55 19,2 C 14,7 C 18,9 C 23,6 C 23,6 C 4,4 C 61 % 65 % 100 % 1013,1 hPa 0,0 l/m 2,9 km/h (1 Bft) NO 45 5 min 2,3 UV-I 11,5 C 23,6 C 11,6 km/h (2 Bft)
28.04.2011 13:00 19,3 C 14,8 C 19,1 C 23,8 C 23,8 C 4,5 C 59 % 63 % 100 % 1013,1 hPa 0,0 l/m 3,9 km/h (1 Bft) O-NO 67 5 min 2,3 UV-I 11,1 C 23,8 C 10,5 km/h (2 Bft)
28.04.2011 13:10 19,6 C 14,8 C 19,4 C 23,5 C 23,5 C 3,9 C 59 % 62 % 100 % 1013,1 hPa 0,0 l/m 6,4 km/h (2 Bft) N 0 10 min 2,7 UV-I 11,4 C 23,5 C 5,1 km/h (1 Bft)
28.04.2011 13:15 19,7 C 14,9 C 19,5 C 23,8 C 23,8 C 4,1 C 57 % 59 % 100 % 1013,2 hPa 0,0 l/m 5,5 km/h (1 Bft) O-NO 67 5 min 2,9 UV-I 10,9 C 23,8 C 12,2 km/h (2 Bft)
28.04.2011 13:20 19,7 C 14,9 C 19,6 C 24,1 C 24,1 C 4,4 C 58 % 61 % 100 % 1013,2 hPa 0,0 l/m 5,0 km/h (1 Bft) O-NO 67 5 min 2,9 UV-I 11,2 C 24,1 C 10,8 km/h (2 Bft)
28.04.2011 13:25 19,8 C 14,8 C 19,8 C 23,9 C 23,9 C 4,1 C 58 % 60 % 100 % 1013,2 hPa 0,0 l/m 5,6 km/h (1 Bft) NO 45 5 min 2,8 UV-I 11,3 C 23,9 C 7,2 km/h (2 Bft)
28.04.2011 13:30 19,9 C 15,0 C 19,9 C 23,5 C 23,5 C 3,6 C 57 % 60 % 95 % 1013,2 hPa 0,0 l/m 6,6 km/h (2 Bft) O-NO 67 5 min 2,8 UV-I 11,1 C 23,5 C 7,4 km/h (2 Bft)
28.04.2011 13:35 19,9 C 15,0 C 19,9 C 23,5 C 23,5 C 3,6 C 58 % 61 % 95 % 1013,1 hPa 0,0 l/m 5,6 km/h (1 Bft) O-NO 67 5 min 2,6 UV-I 11,4 C 23,5 C 12,2 km/h (2 Bft)
28.04.2011 13:40 19,9 C 14,9 C 20,0 C 23,5 C 23,5 C 3,6 C 56 % 58 % 95 % 1013,1 hPa 0,0 l/m 5,0 km/h (1 Bft) O-NO 67 5 min 2,6 UV-I 10,9 C 23,5 C 3,2 km/h (1 Bft)
28.04.2011 13:45 20,1 C 15,1 C 20,1 C 24,2 C 24,2 C 4,1 C 58 % 60 % 100 % 1013,1 hPa 0,0 l/m 3,7 km/h (1 Bft) O-NO 67 5 min 2,2 UV-I 11,6 C 24,2 C 4,8 km/h (1 Bft)
28.04.2011 13:50 20,1 C 15,1 C 20,2 C 23,9 C 23,9 C 3,8 C 56 % 58 % 100 % 1013,1 hPa 0,0 l/m 4,0 km/h (1 Bft) O-NO 67 5 min 2,2 UV-I 11,0 C 23,9 C 8,7 km/h (2 Bft)
28.04.2011 13:55 20,3 C 15,1 C 20,4 C 23,5 C 23,5 C 3,2 C 57 % 57 % 84 % 1012,7 hPa 0,0 l/m 6,4 km/h (2 Bft) O-NO 67 0 min 2,4 UV-I 11,5 C 23,5 C 15,0 km/h (3 Bft)
28.04.2011 14:00 20,4 C 15,1 C 20,7 C 24,1 C 24,1 C 3,7 C 56 % 57 % 97 % 1012,7 hPa 0,0 l/m 5,6 km/h (1 Bft) O-NO 67 5 min 2,4 UV-I 11,3 C 24,1 C 6,9 km/h (2 Bft)
28.04.2011 14:10 20,8 C 15,2 C 21,5 C 25,6 C 25,6 C 4,8 C 52 % 54 % 100 % 1012,7 hPa 0,0 l/m 2,7 km/h (1 Bft) N 0 10 min 2,5 UV-I 10,6 C 25,6 C 3,2 km/h (1 Bft)
28.04.2011 14:15 20,9 C 15,3 C 21,7 C 25,0 C 25,0 C 4,1 C 44 % 46 % 100 % 1012,7 hPa 0,0 l/m 6,1 km/h (2 Bft) O-NO 67 5 min 2,4 UV-I 8,2 C 25,0 C 18,0 km/h (3 Bft)
28.04.2011 14:20 21,1 C 15,3 C 21,6 C 24,4 C 24,4 C 3,3 C 46 % 48 % 87 % 1012,7 hPa 0,0 l/m 8,7 km/h (2 Bft) O-NO 67 5 min 2,4 UV-I 9,0 C 24,4 C 14,3 km/h (3 Bft)
28.04.2011 14:25 20,9 C 15,3 C 21,3 C 23,6 C 23,6 C 2,7 C 44 % 45 % 71 % 1012,7 hPa 0,0 l/m 9,2 km/h (2 Bft) O-NO 67 0 min 1,7 UV-I 8,2 C 23,6 C 12,1 km/h (2 Bft)
28.04.2011 14:30 20,8 C 15,5 C 21,0 C 23,0 C 23,0 C 2,2 C 45 % 46 % 58 % 1012,7 hPa 0,0 l/m 8,0 km/h (2 Bft) O-NO 67 0 min 1,7 UV-I 8,4 C 23,0 C 3,1 km/h (1 Bft)
28.04.2011 14:35 21,2 C 15,4 C 21,7 C 23,5 C 23,5 C 2,3 C 43 % 44 % 61 % 1012,8 hPa 0,0 l/m 5,5 km/h (1 Bft) NO 45 0 min 2,2 UV-I 8,1 C 23,5 C 6,8 km/h (2 Bft)
28.04.2011 14:40 21,5 C 15,5 C 22,3 C 24,5 C 24,5 C 3,0 C 42 % 42 % 79 % 1012,8 hPa 0,0 l/m 4,5 km/h (1 Bft) O-NO 67 0 min 2,2 UV-I 8,0 C 24,5 C 3,7 km/h (1 Bft)
28.04.2011 14:45 21,5 C 15,6 C 22,4 C 25,0 C 25,0 C 3,5 C 42 % 42 % 92 % 1012,8 hPa 0,0 l/m 4,8 km/h (1 Bft) O-SO 112 5 min 2,0 UV-I 8,0 C 25,0 C 4,8 km/h (1 Bft)
28.04.2011 14:50 21,5 C 15,6 C 22,3 C 25,0 C 25,0 C 3,5 C 42 % 43 % 92 % 1012,8 hPa 0,0 l/m 4,7 km/h (1 Bft) O-SO 112 5 min 2,0 UV-I 8,0 C 25,0 C 7,2 km/h (2 Bft)
28.04.2011 14:55 21,7 C 15,7 C 22,5 C 24,9 C 24,9 C 3,2 C 40 % 42 % 84 % 1012,6 hPa 0,0 l/m 6,0 km/h (2 Bft) NO 45 0 min 1,9 UV-I 7,5 C 24,9 C 10,3 km/h (2 Bft)
28.04.2011 15:00 21,5 C 15,7 C 22,0 C 24,5 C 24,5 C 3,0 C 40 % 41 % 79 % 1012,6 hPa 0,0 l/m 7,2 km/h (2 Bft) O-NO 67 0 min 1,9 UV-I 7,3 C 24,5 C 8,2 km/h (2 Bft)
28.04.2011 15:10 21,4 C 15,8 C 21,8 C 23,6 C 23,6 C 2,2 C 41 % 42 % 58 % 1012,6 hPa 0,0 l/m 6,0 km/h (2 Bft) N 0 0 min 1,5 UV-I 7,6 C 23,6 C 4,2 km/h (1 Bft)
28.04.2011 15:15 21,6 C 15,8 C 22,0 C 23,8 C 23,8 C 2,2 C 42 % 43 % 58 % 1012,6 hPa 0,0 l/m 5,1 km/h (1 Bft) NO 45 0 min 1,4 UV-I 8,1 C 23,8 C 2,3 km/h (1 Bft)
28.04.2011 15:20 21,6 C 15,9 C 22,0 C 24,2 C 24,2 C 2,6 C 41 % 42 % 68 % 1012,6 hPa 0,0 l/m 4,2 km/h (1 Bft) O-NO 67 0 min 1,4 UV-I 7,8 C 24,2 C 4,7 km/h (1 Bft)
28.04.2011 15:25 21,6 C 15,9 C 22,0 C 24,4 C 24,4 C 2,8 C 41 % 42 % 74 % 1012,6 hPa 0,0 l/m 4,0 km/h (1 Bft) O-NO 67 0 min 1,3 UV-I 7,8 C 24,4 C 8,2 km/h (2 Bft)
28.04.2011 15:30 21,5 C 16,0 C 21,9 C 24,2 C 24,2 C 2,7 C 40 % 41 % 71 % 1012,6 hPa 0,0 l/m 4,7 km/h (1 Bft) NO 45 0 min 1,3 UV-I 7,3 C 24,2 C 7,4 km/h (2 Bft)
28.04.2011 15:35 21,6 C 16,0 C 21,9 C 24,0 C 24,0 C 2,4 C 40 % 41 % 63 % 1012,1 hPa 0,0 l/m 4,7 km/h (1 Bft) O-NO 67 0 min 1,3 UV-I 7,4 C 24,0 C 4,2 km/h (1 Bft)
28.04.2011 15:40 21,7 C 16,0 C 21,9 C 24,4 C 24,4 C 2,7 C 41 % 41 % 71 % 1012,1 hPa 0,0 l/m 3,9 km/h (1 Bft) O-NO 67 0 min 1,3 UV-I 7,9 C 24,4 C 5,8 km/h (2 Bft)
28.04.2011 15:45 21,7 C 16,1 C 21,9 C 24,3 C 24,3 C 2,6 C 40 % 41 % 68 % 1012,1 hPa 0,0 l/m 5,0 km/h (1 Bft) O-NO 67 0 min 1,3 UV-I 7,5 C 24,3 C 10,0 km/h (2 Bft)
28.04.2011 15:50 21,8 C 16,1 C 21,9 C 24,2 C 24,2 C 2,4 C 40 % 41 % 63 % 1012,1 hPa 0,0 l/m 6,1 km/h (2 Bft) O-NO 67 0 min 1,3 UV-I 7,6 C 24,2 C 10,6 km/h (2 Bft)
28.04.2011 15:55 21,9 C 16,2 C 21,9 C 24,2 C 24,2 C 2,3 C 39 % 41 % 61 % 1011,7 hPa 0,0 l/m 6,8 km/h (2 Bft) O-NO 67 0 min 1,2 UV-I 7,3 C 24,2 C 8,5 km/h (2 Bft)
28.04.2011 16:00 21,9 C 16,2 C 21,9 C 24,2 C 24,2 C 2,3 C 38 % 41 % 61 % 1011,7 hPa 0,0 l/m 6,3 km/h (2 Bft) O-NO 67 0 min 1,2 UV-I 6,9 C 24,2 C 6,1 km/h (2 Bft)
28.04.2011 16:10 22,1 C 16,2 C 21,9 C 24,8 C 24,8 C 2,7 C 40 % 41 % 71 % 1011,7 hPa 0,0 l/m 4,8 km/h (1 Bft) N 0 0 min 1,2 UV-I 7,9 C 24,8 C 5,8 km/h (2 Bft)
28.04.2011 16:15 22,4 C 16,3 C 22,7 C 25,2 C 25,2 C 2,8 C 42 % 45 % 74 % 1011,9 hPa 0,0 l/m 6,1 km/h (2 Bft) O-NO 67 0 min 1,2 UV-I 8,9 C 25,2 C 8,7 km/h (2 Bft)
28.04.2011 16:20 22,3 C 16,3 C 22,7 C 25,2 C 25,2 C 2,9 C 41 % 45 % 76 % 1011,9 hPa 0,0 l/m 7,1 km/h (2 Bft) O-NO 67 0 min 1,2 UV-I 8,4 C 25,2 C 9,3 km/h (2 Bft)
28.04.2011 16:25 22,0 C 16,3 C 22,5 C 24,9 C 24,9 C 2,9 C 43 % 43 % 76 % 1011,9 hPa 0,0 l/m 8,7 km/h (2 Bft) O-NO 67 0 min 1,0 UV-I 8,8 C 24,9 C 12,2 km/h (2 Bft)
28.04.2011 16:30 21,8 C 16,3 C 22,5 C 24,3 C 24,3 C 2,5 C 42 % 43 % 66 % 1011,9 hPa 0,0 l/m 8,4 km/h (2 Bft) O-NO 67 0 min 1,0 UV-I 8,3 C 24,3 C 9,5 km/h (2 Bft)
28.04.2011 16:35 21,5 C 16,4 C 21,3 C 23,1 C 23,1 C 1,6 C 43 % 44 % 42 % 1011,6 hPa 0,0 l/m 8,4 km/h (2 Bft) O-NO 67 0 min 0,7 UV-I 8,4 C 23,1 C 9,2 km/h (2 Bft)
28.04.2011 16:40 21,6 C 16,4 C 21,4 C 22,8 C 22,8 C 1,2 C 43 % 44 % 32 % 1011,6 hPa 0,0 l/m 8,7 km/h (2 Bft) O 90 0 min 0,7 UV-I 8,5 C 22,8 C 9,3 km/h (2 Bft)
28.04.2011 16:45 21,6 C 16,4 C 21,6 C 23,3 C 23,3 C 1,7 C 43 % 43 % 45 % 1011,6 hPa 0,0 l/m 8,4 km/h (2 Bft) O-NO 67 0 min 0,4 UV-I 8,5 C 23,3 C 19,0 km/h (3 Bft)
28.04.2011 16:50 21,2 C 16,4 C 21,1 C 23,0 C 23,0 C 1,8 C 44 % 45 % 47 % 1011,6 hPa 0,0 l/m 7,4 km/h (2 Bft) O-NO 67 0 min 0,4 UV-I 8,5 C 23,0 C 7,7 km/h (2 Bft)
28.04.2011 16:55 20,7 C 16,5 C 20,5 C 20,9 C 20,9 C 0,2 C 45 % 47 % 5 % 1011,8 hPa 0,0 l/m 6,4 km/h (2 Bft) N-NO 22 0 min 0,2 UV-I 8,3 C 20,9 C 8,0 km/h (2 Bft)
28.04.2011 17:00 20,5 C 16,5 C 20,3 C 20,5 C 20,4 C 0,0 C 46 % 47 % 0 % 1011,8 hPa 0,0 l/m 5,1 km/h (1 Bft) NO 45 0 min 0,2 UV-I 8,5 C 20,4 C 2,6 km/h (1 Bft)
28.04.2011 17:10 20,5 C 16,5 C 20,0 C 20,7 C 20,7 C 0,2 C 47 % 49 % 5 % 1011,8 hPa 0,0 l/m 2,6 km/h (1 Bft) N 0 0 min 0,4 UV-I 8,8 C 20,7 C 2,7 km/h (1 Bft)
28.04.2011 17:15 20,5 C 16,6 C 20,0 C 21,0 C 21,0 C 0,5 C 47 % 49 % 13 % 1011,4 hPa 0,0 l/m 1,8 km/h (1 Bft) NO 45 0 min 0,2 UV-I 8,8 C 21,0 C 2,4 km/h (1 Bft)
28.04.2011 17:20 20,5 C 16,6 C 19,8 C 21,1 C 21,1 C 0,6 C 48 % 50 % 16 % 1011,4 hPa 0,0 l/m 1,6 km/h (1 Bft) O-NO 67 0 min 0,2 UV-I 9,1 C 21,1 C 2,1 km/h (1 Bft)
28.04.2011 17:25 20,5 C 16,6 C 19,8 C 21,3 C 21,3 C 0,8 C 49 % 51 % 21 % 1011,4 hPa 0,0 l/m 1,9 km/h (1 Bft) O-NO 67 0 min 0,3 UV-I 9,4 C 21,3 C 1,9 km/h (1 Bft)
28.04.2011 17:30 20,7 C 16,6 C 19,9 C 21,6 C 21,6 C 0,9 C 51 % 52 % 24 % 1011,4 hPa 0,0 l/m 2,4 km/h (1 Bft) O-NO 67 0 min 0,3 UV-I 10,2 C 21,6 C 6,4 km/h (2 Bft)
28.04.2011 17:35 20,3 C 16,6 C 20,0 C 21,7 C 21,7 C 1,4 C 45 % 47 % 37 % 1011,8 hPa 0,0 l/m 8,2 km/h (2 Bft) NO 45 0 min 0,3 UV-I 8,0 C 21,7 C 22,2 km/h (4 Bft)
28.04.2011 17:40 20,0 C 16,6 C 19,6 C 21,1 C 21,1 C 1,1 C 45 % 47 % 29 % 1011,8 hPa 0,0 l/m 11,6 km/h (2 Bft) O-NO 67 0 min 0,3 UV-I 7,7 C 21,1 C 11,9 km/h (2 Bft)
28.04.2011 17:45 19,9 C 16,6 C 19,5 C 20,7 C 20,7 C 0,8 C 45 % 47 % 21 % 1011,8 hPa 0,0 l/m 11,4 km/h (2 Bft) O 90 0 min 0,3 UV-I 7,6 C 20,7 C 16,3 km/h (3 Bft)
28.04.2011 17:50 19,9 C 16,6 C 19,4 C 20,5 C 20,5 C 0,6 C 44 % 47 % 16 % 1011,8 hPa 0,0 l/m 11,3 km/h (2 Bft) O-NO 67 0 min 0,3 UV-I 7,3 C 20,5 C 20,8 km/h (4 Bft)
28.04.2011 17:55 19,6 C 16,6 C 19,1 C 20,2 C 20,2 C 0,6 C 46 % 48 % 16 % 1011,8 hPa 0,0 l/m 11,9 km/h (2 Bft) NO 45 0 min 0,0 UV-I 7,7 C 20,2 C 10,1 km/h (2 Bft)
28.04.2011 18:00 19,5 C 16,6 C 18,8 C 19,7 C 19,7 C 0,2 C 46 % 48 % 5 % 1011,8 hPa 0,0 l/m 11,9 km/h (2 Bft) O-NO 67 0 min 0,0 UV-I 7,6 C 19,7 C 17,2 km/h (3 Bft)
28.04.2011 18:10 19,1 C 16,7 C 18,4 C 19,0 C 18,9 C 0,0 C 48 % 51 % 0 % 1011,8 hPa 0,0 l/m 12,7 km/h (3 Bft) N 0 0 min 0,0 UV-I 7,8 C 18,9 C 25,3 km/h (4 Bft)
28.04.2011 18:15 18,9 C 16,8 C 18,3 C 18,8 C 18,7 C 0,0 C 50 % 52 % 0 % 1012,1 hPa 0,0 l/m 8,9 km/h (2 Bft) O-NO 67 0 min 0,1 UV-I 8,2 C 18,7 C 6,9 km/h (2 Bft)
28.04.2011 18:20 18,8 C 16,8 C 18,3 C 18,7 C 18,6 C 0,0 C 50 % 53 % 0 % 1012,1 hPa 0,0 l/m 7,2 km/h (2 Bft) O-NO 67 0 min 0,1 UV-I 8,2 C 18,6 C 12,6 km/h (3 Bft)
28.04.2011 18:25 18,7 C 16,8 C 18,0 C 18,6 C 18,4 C 0,0 C 51 % 53 % 0 % 1012,1 hPa 0,0 l/m 6,8 km/h (2 Bft) O-NO 67 0 min 0,1 UV-I 8,4 C 18,4 C 8,9 km/h (2 Bft)
28.04.2011 18:30 18,7 C 16,8 C 18,1 C 18,6 C 18,4 C 0,0 C 50 % 53 % 0 % 1012,1 hPa 0,0 l/m 7,6 km/h (2 Bft) O-NO 67 0 min 0,1 UV-I 8,1 C 18,4 C 14,2 km/h (3 Bft)
28.04.2011 18:35 18,4 C 16,8 C 17,8 C 18,3 C 18,2 C 0,0 C 49 % 51 % 0 % 1012,1 hPa 0,0 l/m 9,2 km/h (2 Bft) N-NO 22 0 min 0,1 UV-I 7,5 C 18,2 C 9,3 km/h (2 Bft)
28.04.2011 18:40 18,4 C 16,8 C 17,7 C 18,3 C 18,2 C 0,0 C 48 % 51 % 0 % 1012,1 hPa 0,0 l/m 9,0 km/h (2 Bft) O-NO 67 0 min 0,1 UV-I 7,2 C 18,2 C 10,6 km/h (2 Bft)
28.04.2011 18:45 18,3 C 16,7 C 17,6 C 18,2 C 18,0 C 0,0 C 46 % 50 % 0 % 1012,1 hPa 0,0 l/m 8,0 km/h (2 Bft) NO 45 0 min 0,0 UV-I 6,5 C 18,0 C 10,3 km/h (2 Bft)
28.04.2011 18:50 18,3 C 16,7 C 17,6 C 18,2 C 18,1 C 0,0 C 46 % 50 % 0 % 1012,1 hPa 0,0 l/m 9,0 km/h (2 Bft) O-NO 67 0 min 0,0 UV-I 6,5 C 18,1 C 12,9 km/h (3 Bft)
28.04.2011 18:55 18,3 C 16,7 C 17,7 C 18,2 C 18,1 C 0,0 C 46 % 49 % 0 % 1011,9 hPa 0,0 l/m 9,5 km/h (2 Bft) O 90 0 min 0,0 UV-I 6,5 C 18,1 C 13,5 km/h (3 Bft)
28.04.2011 19:00 18,3 C 16,7 C 17,7 C 18,2 C 18,1 C 0,0 C 46 % 49 % 0 % 1011,9 hPa 0,0 l/m 9,5 km/h (2 Bft) O-NO 67 0 min 0,0 UV-I 6,5 C 18,1 C 13,7 km/h (3 Bft)
28.04.2011 19:10 18,0 C 16,7 C 17,4 C 18,0 C 18,0 C 0,0 C 47 % 49 % 0 % 1011,9 hPa 0,0 l/m 7,9 km/h (2 Bft) N 0 0 min 0,0 UV-I 6,5 C 18,0 C 7,4 km/h (2 Bft)
28.04.2011 19:15 18,0 C 16,7 C 17,4 C 18,0 C 17,9 C 0,0 C 48 % 51 % 0 % 1011,8 hPa 0,0 l/m 5,0 km/h (1 Bft) O-NO 67 0 min 0,0 UV-I 6,8 C 17,9 C 2,4 km/h (1 Bft)
28.04.2011 19:20 18,0 C 16,7 C 17,2 C 17,9 C 17,7 C 0,0 C 48 % 52 % 0 % 1011,8 hPa 0,0 l/m 3,7 km/h (1 Bft) O-NO 67 0 min 0,0 UV-I 6,8 C 17,7 C 4,7 km/h (1 Bft)
28.04.2011 19:25 17,9 C 16,7 C 17,2 C 17,8 C 17,7 C 0,0 C 48 % 51 % 0 % 1011,8 hPa 0,0 l/m 4,8 km/h (1 Bft) NO 45 0 min 0,0 UV-I 6,7 C 17,7 C 13,8 km/h (3 Bft)
28.04.2011 19:30 17,9 C 16,7 C 17,2 C 17,8 C 17,7 C 0,0 C 49 % 52 % 0 % 1011,8 hPa 0,0 l/m 5,1 km/h (1 Bft) SO 135 0 min 0,0 UV-I 7,0 C 17,7 C 2,9 km/h (1 Bft)
28.04.2011 19:35 17,9 C 16,7 C 17,2 C 17,7 C 17,4 C 0,0 C 51 % 54 % 0 % 1012,3 hPa 0,0 l/m 3,4 km/h (1 Bft) O-SO 112 0 min 0,0 UV-I 7,6 C 17,4 C 2,3 km/h (1 Bft)
28.04.2011 19:40 17,7 C 16,7 C 17,1 C 17,5 C 17,1 C 0,0 C 52 % 55 % 0 % 1012,3 hPa 0,0 l/m 2,1 km/h (1 Bft) O-NO 67 0 min 0,0 UV-I 7,7 C 17,1 C 2,9 km/h (1 Bft)
28.04.2011 19:45 17,6 C 16,7 C 16,9 C 17,4 C 16,9 C 0,0 C 53 % 55 % 0 % 1012,3 hPa 0,0 l/m 1,8 km/h (1 Bft) NO 45 0 min 0,0 UV-I 7,9 C 16,9 C 2,9 km/h (1 Bft)
28.04.2011 19:50 17,6 C 16,7 C 16,8 C 17,3 C 16,8 C 0,0 C 53 % 56 % 0 % 1012,3 hPa 0,0 l/m 1,4 km/h (1 Bft) O 90 0 min 0,0 UV-I 7,9 C 16,8 C 2,7 km/h (1 Bft)
28.04.2011 19:55 17,5 C 16,7 C 16,8 C 17,2 C 16,6 C 0,0 C 53 % 57 % 0 % 1012,4 hPa 0,0 l/m 0,5 km/h (0 Bft) NW 315 0 min 0,0 UV-I 7,8 C 16,6 C 0,0 km/h (0 Bft)
28.04.2011 20:00 17,4 C 16,7 C 16,7 C 17,1 C 16,4 C 0,0 C 54 % 58 % 0 % 1012,4 hPa 0,0 l/m 0,3 km/h (0 Bft) N-NO 22 0 min 0,0 UV-I 8,0 C 16,4 C 0,0 km/h (0 Bft)
28.04.2011 20:10 17,2 C 16,7 C 16,7 C 16,8 C 16,1 C 0,0 C 55 % 58 % 0 % 1012,4 hPa 0,0 l/m 0,2 km/h (0 Bft) N 0 0 min 0,0 UV-I 8,1 C 16,1 C 0,0 km/h (0 Bft)
28.04.2011 20:15 17,3 C 16,6 C 16,3 C 16,8 C 15,8 C 0,0 C 56 % 60 % 0 % 1012,6 hPa 0,0 l/m 0,2 km/h (0 Bft) S 180 0 min 0,0 UV-I 8,4 C 15,8 C 0,0 km/h (0 Bft)
28.04.2011 20:20 17,1 C 16,6 C 16,1 C 16,6 C 15,7 C 0,0 C 56 % 62 % 0 % 1012,6 hPa 0,0 l/m 0,5 km/h (0 Bft) SW 225 0 min 0,0 UV-I 8,3 C 15,7 C 2,7 km/h (1 Bft)
28.04.2011 20:25 17,0 C 16,6 C 15,9 C 16,5 C 15,5 C 0,0 C 57 % 62 % 0 % 1012,6 hPa 0,0 l/m 1,4 km/h (1 Bft) SO 135 0 min 0,0 UV-I 8,4 C 15,5 C 3,4 km/h (1 Bft)
28.04.2011 20:30 16,8 C 16,6 C 15,9 C 16,3 C 15,4 C 0,0 C 57 % 63 % 0 % 1012,6 hPa 0,0 l/m 1,4 km/h (1 Bft) O-SO 112 0 min 0,0 UV-I 8,2 C 15,4 C 0,0 km/h (0 Bft)
28.04.2011 20:35 16,7 C 16,6 C 15,7 C 16,1 C 15,0 C 0,0 C 58 % 63 % 0 % 1012,6 hPa 0,0 l/m 0,3 km/h (0 Bft) S 180 0 min 0,0 UV-I 8,4 C 15,0 C 0,0 km/h (0 Bft)
28.04.2011 20:40 16,7 C 16,6 C 15,5 C 16,1 C 14,9 C 0,0 C 59 % 65 % 0 % 1012,6 hPa 0,0 l/m 0,0 km/h (0 Bft) S-SO 157 0 min 0,0 UV-I 8,6 C 14,9 C 0,0 km/h (0 Bft)
28.04.2011 20:45 16,4 C 16,7 C 15,3 C 15,7 C 14,4 C 0,0 C 59 % 64 % 0 % 1012,6 hPa 0,0 l/m 0,0 km/h (0 Bft) S-SO 157 0 min 0,0 UV-I 8,4 C 14,4 C 0,0 km/h (0 Bft)
28.04.2011 20:50 16,3 C 16,7 C 15,2 C 15,6 C 14,3 C 0,0 C 60 % 65 % 0 % 1012,6 hPa 0,0 l/m 0,0 km/h (0 Bft) S-SO 157 0 min 0,0 UV-I 8,5 C 14,3 C 0,0 km/h (0 Bft)
28.04.2011 20:55 16,1 C 16,7 C 15,1 C 15,4 C 14,1 C 0,0 C 59 % 65 % 0 % 1012,7 hPa 0,0 l/m 0,0 km/h (0 Bft) N-NW 337 0 min 0,0 UV-I 8,1 C 14,1 C 0,0 km/h (0 Bft)
28.04.2011 21:00 16,0 C 16,6 C 14,9 C 15,3 C 14,0 C 0,0 C 60 % 66 % 0 % 1012,7 hPa 0,0 l/m 0,0 km/h (0 Bft) O-NO 67 0 min 0,0 UV-I 8,2 C 14,0 C 0,0 km/h (0 Bft)
28.04.2011 21:10 15,6 C 16,6 C 14,6 C 15,0 C 13,8 C 0,0 C 62 % 67 % 0 % 1012,7 hPa 0,0 l/m 0,2 km/h (0 Bft) N 0 0 min 0,0 UV-I 8,3 C 13,8 C 0,0 km/h (0 Bft)
28.04.2011 21:15 15,5 C 16,6 C 14,4 C 14,9 C 13,7 C 0,0 C 63 % 68 % 0 % 1012,9 hPa 0,0 l/m 0,0 km/h (0 Bft) NO 45 0 min 0,0 UV-I 8,5 C 13,7 C 0,0 km/h (0 Bft)
28.04.2011 21:20 15,5 C 16,6 C 14,2 C 14,9 C 13,6 C 0,0 C 63 % 68 % 0 % 1012,9 hPa 0,0 l/m 0,0 km/h (0 Bft) O-NO 67 0 min 0,0 UV-I 8,5 C 13,6 C 0,0 km/h (0 Bft)
28.04.2011 21:25 15,2 C 16,6 C 14,0 C 14,6 C 13,5 C 0,0 C 65 % 70 % 0 % 1012,9 hPa 0,0 l/m 0,5 km/h (0 Bft) NO 45 0 min 0,0 UV-I 8,7 C 13,5 C 0,0 km/h (0 Bft)
28.04.2011 21:30 15,0 C 16,6 C 14,0 C 14,5 C 13,4 C 0,0 C 65 % 70 % 0 % 1012,9 hPa 0,0 l/m 0,5 km/h (0 Bft) O-NO 67 0 min 0,0 UV-I 8,5 C 13,4 C 0,0 km/h (0 Bft)
28.04.2011 21:35 14,9 C 16,6 C 13,9 C 14,3 C 13,1 C 0,0 C 66 % 71 % 0 % 1013,0 hPa 0,0 l/m 0,0 km/h (0 Bft) N-NO 22 0 min 0,0 UV-I 8,6 C 13,1 C 0,0 km/h (0 Bft)
28.04.2011 21:40 14,9 C 16,6 C 13,6 C 14,2 C 12,8 C 0,0 C 67 % 74 % 0 % 1013,0 hPa 0,0 l/m 0,0 km/h (0 Bft) SW 225 0 min 0,0 UV-I 8,8 C 12,8 C 0,0 km/h (0 Bft)
28.04.2011 21:45 15,0 C 16,5 C 13,4 C 14,3 C 12,8 C 0,0 C 67 % 73 % 0 % 1013,0 hPa 0,0 l/m 0,0 km/h (0 Bft) SW 225 0 min 0,0 UV-I 8,9 C 12,8 C 0,0 km/h (0 Bft)
28.04.2011 21:50 15,0 C 16,5 C 13,4 C 14,3 C 12,8 C 0,0 C 67 % 73 % 0 % 1013,0 hPa 0,0 l/m 0,0 km/h (0 Bft) O-NO 67 0 min 0,0 UV-I 8,9 C 12,8 C 0,0 km/h (0 Bft)
28.04.2011 21:55 14,7 C 16,5 C 13,4 C 14,1 C 12,8 C 0,0 C 68 % 73 % 0 % 1013,2 hPa 0,0 l/m 0,0 km/h (0 Bft) O-NO 67 0 min 0,0 UV-I 8,9 C 12,8 C 0,0 km/h (0 Bft)
28.04.2011 22:00 14,7 C 16,5 C 13,4 C 14,1 C 12,8 C 0,0 C 69 % 73 % 0 % 1013,2 hPa 0,0 l/m 0,0 km/h (0 Bft) O-NO 67 0 min 0,0 UV-I 9,1 C 12,8 C 0,0 km/h (0 Bft)
28.04.2011 22:10 14,6 C 16,5 C 13,2 C 13,9 C 12,6 C 0,0 C 69 % 75 % 0 % 1013,2 hPa 0,0 l/m 0,0 km/h (0 Bft) N 0 0 min 0,0 UV-I 9,0 C 12,6 C 0,0 km/h (0 Bft)
28.04.2011 22:15 14,7 C 16,5 C 13,2 C 13,9 C 12,4 C 0,0 C 69 % 75 % 0 % 1013,2 hPa 0,0 l/m 0,0 km/h (0 Bft) SW 225 0 min 0,0 UV-I 9,1 C 12,4 C 0,0 km/h (0 Bft)
28.04.2011 22:20 14,7 C 16,5 C 13,1 C 13,9 C 12,4 C 0,0 C 69 % 76 % 0 % 1013,2 hPa 0,0 l/m 0,0 km/h (0 Bft) W 270 0 min 0,0 UV-I 9,1 C 12,4 C 0,0 km/h (0 Bft)
28.04.2011 22:25 14,4 C 16,5 C 12,9 C 13,7 C 12,2 C 0,0 C 69 % 76 % 0 % 1013,2 hPa 0,0 l/m 0,0 km/h (0 Bft) W 270 0 min 0,0 UV-I 8,8 C 12,2 C 0,0 km/h (0 Bft)
28.04.2011 22:30 14,2 C 16,5 C 12,9 C 13,5 C 12,1 C 0,0 C 70 % 76 % 0 % 1013,2 hPa 0,0 l/m 0,2 km/h (0 Bft) O-NO 67 0 min 0,0 UV-I 8,8 C 12,1 C 1,6 km/h (1 Bft)
28.04.2011 22:35 14,3 C 16,4 C 12,9 C 13,6 C 12,1 C 0,0 C 71 % 76 % 0 % 1013,2 hPa 0,0 l/m 0,5 km/h (0 Bft) O-NO 67 0 min 0,0 UV-I 9,1 C 12,1 C 0,0 km/h (0 Bft)
28.04.2011 22:40 14,3 C 16,5 C 12,9 C 13,6 C 12,1 C 0,0 C 71 % 76 % 0 % 1013,2 hPa 0,0 l/m 0,3 km/h (0 Bft) O-NO 67 0 min 0,0 UV-I 9,1 C 12,1 C 0,0 km/h (0 Bft)
28.04.2011 22:45 14,1 C 16,5 C 12,9 C 13,4 C 12,0 C 0,0 C 72 % 76 % 0 % 1013,2 hPa 0,0 l/m 0,0 km/h (0 Bft) W 270 0 min 0,0 UV-I 9,1 C 12,0 C 0,0 km/h (0 Bft)
28.04.2011 22:50 14,2 C 16,5 C 12,9 C 13,5 C 12,0 C 0,0 C 72 % 76 % 0 % 1013,2 hPa 0,0 l/m 0,0 km/h (0 Bft) W 270 0 min 0,0 UV-I 9,2 C 12,0 C 0,0 km/h (0 Bft)
28.04.2011 22:55 14,0 C 16,5 C 12,9 C 13,3 C 12,0 C 0,0 C 72 % 76 % 0 % 1013,0 hPa 0,0 l/m 0,0 km/h (0 Bft) O-NO 67 0 min 0,0 UV-I 9,0 C 12,0 C 0,0 km/h (0 Bft)
28.04.2011 23:00 14,0 C 16,5 C 12,9 C 13,3 C 12,0 C 0,0 C 73 % 76 % 0 % 1013,0 hPa 0,0 l/m 0,0 km/h (0 Bft) NO 45 0 min 0,0 UV-I 9,2 C 12,0 C 0,0 km/h (0 Bft)
28.04.2011 23:10 13,9 C 16,5 C 12,9 C 13,2 C 11,8 C 0,0 C 73 % 76 % 0 % 1013,0 hPa 0,0 l/m 1,0 km/h (0 Bft) N 0 0 min 0,0 UV-I 9,1 C 11,8 C 0,0 km/h (0 Bft)
28.04.2011 23:15 13,7 C 16,4 C 12,9 C 13,1 C 11,8 C 0,0 C 74 % 76 % 0 % 1013,0 hPa 0,0 l/m 1,1 km/h (1 Bft) SO 135 0 min 0,0 UV-I 9,2 C 11,8 C 0,0 km/h (0 Bft)
28.04.2011 23:20 13,7 C 16,4 C 12,9 C 13,0 C 11,7 C 0,0 C 74 % 76 % 0 % 1013,0 hPa 0,0 l/m 1,0 km/h (0 Bft) NO 45 0 min 0,0 UV-I 9,2 C 11,7 C 2,3 km/h (1 Bft)
28.04.2011 23:25 13,6 C 16,4 C 12,9 C 13,0 C 11,7 C 0,0 C 74 % 76 % 0 % 1013,0 hPa 0,0 l/m 0,5 km/h (0 Bft) NO 45 0 min 0,0 UV-I 9,1 C 11,7 C 0,0 km/h (0 Bft)
28.04.2011 23:30 13,6 C 16,4 C 12,9 C 12,9 C 11,6 C 0,0 C 74 % 76 % 0 % 1013,0 hPa 0,0 l/m 0,2 km/h (0 Bft) S 180 0 min 0,0 UV-I 9,1 C 11,6 C 0,0 km/h (0 Bft)
28.04.2011 23:35 13,7 C 16,4 C 12,3 C 12,9 C 11,4 C 0,0 C 75 % 81 % 0 % 1013,1 hPa 0,0 l/m 0,0 km/h (0 Bft) W-SW 247 0 min 0,0 UV-I 9,3 C 11,4 C 0,0 km/h (0 Bft)
28.04.2011 23:40 13,6 C 16,4 C 12,3 C 12,9 C 11,4 C 0,0 C 75 % 81 % 0 % 1013,1 hPa 0,0 l/m 0,0 km/h (0 Bft) W-NW 292 0 min 0,0 UV-I 9,3 C 11,4 C 0,0 km/h (0 Bft)
28.04.2011 23:45 13,4 C 16,4 C 12,3 C 12,7 C 11,2 C 0,0 C 74 % 81 % 0 % 1013,1 hPa 0,0 l/m 0,2 km/h (0 Bft) NW 315 0 min 0,0 UV-I 8,9 C 11,2 C 0,0 km/h (0 Bft)
28.04.2011 23:50 13,5 C 16,4 C 12,3 C 12,7 C 11,2 C 0,0 C 75 % 81 % 0 % 1013,1 hPa 0,0 l/m 0,2 km/h (0 Bft) NW 315 0 min 0,0 UV-I 9,2 C 11,2 C 0,0 km/h (0 Bft)
28.04.2011 23:55 13,2 C 16,4 C 12,3 C 12,4 C 10,9 C 0,0 C 75 % 81 % 0 % 1013,1 hPa 0,0 l/m 0,0 km/h (0 Bft) NW 315 0 min 0,0 UV-I 8,9 C 10,9 C 0,0 km/h (0 Bft)
_ Min-Zeit 06:15 09:10 06:15 06:10 06:00 00:00 16:00 15:00 00:00 17:15 - 00:00 - - - 00:00 18:45 06:00 00:00
Minimum _ 8,6 C 14,1 C 7,7 C 8,1 C 7,0 C 0,0 C 38 % 41 % 0 % 1011,4 hPa - 0,0 km/h (0 Bft) - - - 0,0 UV-I 6,5 C 7,0 C 0,0 km/h (0 Bft)
_ Max-Zeit 16:15 18:15 16:15 14:10 14:10 10:25 06:40 07:20 10:20 02:35 00:00 18:10 - - 11:10 13:15 11:00 14:10 18:10
Maximum _ 22,4 C 16,8 C 22,7 C 25,6 C 25,6 C 4,9 C 90 % 94 % 100 % 1015,2 hPa 0,0 l/m 12,7 km/h
N (3 Bft)
- - 10 min 2,9 UV-I 12,4 C 25,6 C 25,3 km/h
N (4 Bft)
Durchschnitt _ 14,6 C 15,5 C 13,9 C 15,4 C 14,7 C 1,0 C 71 % 75 % 26 % 1013,3 hPa #0,0 l/m 2,2 km/h (1 Bft) O-NO - #3:15 h 1,1 UV-I 8,8 C 14,7 C 3,1 km/h (1 Bft)
2013 www.wetterstation-wechselburg.de